Time,TemperatureF,DewpointF,PressureIn,WindDirection,WindDirectionDegrees,WindSpeedMPH,WindSpeedGustMPH,Humidity,HourlyPrecipIn,Conditions,Clouds,dailyrainin,SoftwareType,DateUTC
2013-05-01 00:08:00,40.8,34.0,30.45,West,271,2.0,6.0,76,0.00,,,0.00,weatherlink.com 1.10,2013-05-01 07:08:00,
2013-05-01 00:23:00,40.9,34.0,30.46,NW,326,0.0,5.0,76,0.00,,,0.00,weatherlink.com 1.10,2013-05-01 07:23:00,
2013-05-01 00:38:00,40.6,34.0,30.46,NE,37,0.0,4.0,77,0.00,,,0.00,weatherlink.com 1.10,2013-05-01 07:38:00,
2013-05-01 00:53:00,40.3,34.0,30.46,NW,314,4.0,5.0,78,0.00,,,0.00,weatherlink.com 1.10,2013-05-01 07:53:00,
2013-05-01 01:08:00,40.0,34.0,30.46,NNW,333,2.0,4.0,79,0.00,,,0.00,weatherlink.com 1.10,2013-05-01 08:08:00,
2013-05-01 01:23:00,40.0,34.0,30.46,NNE,25,0.0,3.0,80,0.00,,,0.00,weatherlink.com 1.10,2013-05-01 08:23:00,
2013-05-01 01:38:00,39.9,34.0,30.46,NNW,347,2.0,10.0,80,0.00,,,0.00,weatherlink.com 1.10,2013-05-01 08:38:00,
2013-05-01 01:53:00,39.9,34.0,30.46,NNW,342,5.0,8.0,80,0.00,,,0.00,weatherlink.com 1.10,2013-05-01 08:53:00,
2013-05-01 02:09:00,40.0,34.0,30.46,North,358,1.0,7.0,79,0.00,,,0.00,weatherlink.com 1.10,2013-05-01 09:09:00,
2013-05-01 02:24:00,39.6,34.0,30.46,WSW,254,3.0,5.0,80,0.00,,,0.00,weatherlink.com 1.10,2013-05-01 09:24:00,
2013-05-01 02:39:00,39.3,34.0,30.46,NW,326,2.0,5.0,80,0.00,,,0.00,weatherlink.com 1.10,2013-05-01 09:39:00,
2013-05-01 02:54:00,38.8,33.0,30.47,NNE,18,1.0,3.0,81,0.00,,,0.00,weatherlink.com 1.10,2013-05-01 09:54:00,
2013-05-01 03:09:00,38.7,34.0,30.47,NE,37,2.0,5.0,82,0.00,,,0.00,weatherlink.com 1.10,2013-05-01 10:09:00,
2013-05-01 03:24:00,38.3,33.0,30.47,NE,39,1.0,5.0,82,0.00,,,0.00,weatherlink.com 1.10,2013-05-01 10:24:00,
2013-05-01 03:39:00,37.7,33.0,30.47,NNE,12,0.0,2.0,83,0.00,,,0.00,weatherlink.com 1.10,2013-05-01 10:39:00,
2013-05-01 03:54:00,36.5,33.0,30.48,NNE,27,0.0,1.0,86,0.00,,,0.00,weatherlink.com 1.10,2013-05-01 10:54:00,
2013-05-01 04:09:00,35.5,32.0,30.48,East,82,0.0,1.0,88,0.00,,,0.00,weatherlink.com 1.10,2013-05-01 11:09:00,
2013-05-01 04:24:00,35.3,32.0,30.48,ENE,64,0.0,1.0,88,0.00,,,0.00,weatherlink.com 1.10,2013-05-01 11:24:00,
2013-05-01 04:39:00,35.7,33.0,30.48,ENE,65,0.0,1.0,88,0.00,,,0.00,weatherlink.com 1.10,2013-05-01 11:39:00,
2013-05-01 04:54:00,35.1,32.0,30.48,East,79,0.0,1.0,89,0.00,,,0.00,weatherlink.com 1.10,2013-05-01 11:54:00,
2013-05-01 05:09:00,35.0,32.0,30.48,East,80,1.0,1.0,89,0.00,,,0.00,weatherlink.com 1.10,2013-05-01 12:09:00,
2013-05-01 05:24:00,34.7,32.0,30.49,ENE,72,0.0,1.0,89,0.00,,,0.00,weatherlink.com 1.10,2013-05-01 12:24:00,
2013-05-01 05:39:00,35.0,32.0,30.49,NE,44,0.0,1.0,89,0.00,,,0.00,weatherlink.com 1.10,2013-05-01 12:39:00,
2013-05-01 05:54:00,34.3,32.0,30.49,ENE,78,0.0,1.0,90,0.00,,,0.00,weatherlink.com 1.10,2013-05-01 12:54:00,
2013-05-01 06:09:00,33.9,31.0,30.49,NE,45,0.0,1.0,90,0.00,,,0.00,weatherlink.com 1.10,2013-05-01 13:09:00,
2013-05-01 06:24:00,34.1,32.0,30.50,NNE,27,1.0,1.0,91,0.00,,,0.00,weatherlink.com 1.10,2013-05-01 13:24:00,
2013-05-01 06:39:00,34.5,32.0,30.50,ENE,68,0.0,2.0,91,0.00,,,0.00,weatherlink.com 1.10,2013-05-01 13:39:00,
2013-05-01 06:54:00,34.7,32.0,30.50,East,92,0.0,2.0,91,0.00,,,0.00,weatherlink.com 1.10,2013-05-01 13:54:00,
2013-05-01 07:09:00,35.1,33.0,30.51,ENE,72,0.0,2.0,92,0.00,,,0.00,weatherlink.com 1.10,2013-05-01 14:09:00,
2013-05-01 07:24:00,35.1,33.0,30.51,ENE,71,0.0,0.0,91,0.00,,,0.00,weatherlink.com 1.10,2013-05-01 14:24:00,
2013-05-01 07:39:00,35.7,34.0,30.52,South,169,0.0,0.0,92,0.00,,,0.00,weatherlink.com 1.10,2013-05-01 14:39:00,
2013-05-01 07:54:00,36.9,34.0,30.52,South,181,0.0,1.0,90,0.00,,,0.00,weatherlink.com 1.10,2013-05-01 14:54:00,
2013-05-01 08:09:00,39.5,36.0,30.52,SSW,207,0.0,1.0,87,0.00,,,0.00,weatherlink.com 1.10,2013-05-01 15:09:00,
2013-05-01 08:24:00,42.1,37.0,30.52,SSE,153,0.0,1.0,81,0.00,,,0.00,weatherlink.com 1.10,2013-05-01 15:24:00,
2013-05-01 08:39:00,42.5,37.0,30.52,SSE,167,1.0,1.0,80,0.00,,,0.00,weatherlink.com 1.10,2013-05-01 15:39:00,
2013-05-01 08:54:00,43.0,37.0,30.52,SW,228,0.0,3.0,80,0.00,,,0.00,weatherlink.com 1.10,2013-05-01 15:54:00,
2013-05-01 09:09:00,43.7,37.0,30.52,West,273,2.0,3.0,78,0.00,,,0.00,weatherlink.com 1.10,2013-05-01 16:09:00,
2013-05-01 09:25:00,44.8,37.0,30.53,West,280,0.0,4.0,75,0.00,,,0.00,weatherlink.com 1.10,2013-05-01 16:25:00,
2013-05-01 09:40:00,46.3,38.0,30.53,West,281,0.0,3.0,72,0.00,,,0.00,weatherlink.com 1.10,2013-05-01 16:40:00,
2013-05-01 09:55:00,47.4,39.0,30.52,West,267,0.0,4.0,73,0.00,,,0.00,weatherlink.com 1.10,2013-05-01 16:55:00,
2013-05-01 10:10:00,48.7,40.0,30.52,West,259,2.0,4.0,71,0.00,,,0.00,weatherlink.com 1.10,2013-05-01 17:10:00,
2013-05-01 10:25:00,49.7,39.0,30.52,WNW,291,1.0,5.0,67,0.00,,,0.00,weatherlink.com 1.10,2013-05-01 17:25:00,
2013-05-01 10:40:00,50.4,39.0,30.52,West,272,1.0,4.0,66,0.00,,,0.00,weatherlink.com 1.10,2013-05-01 17:40:00,
2013-05-01 10:55:00,52.1,40.0,30.52,West,276,4.0,5.0,63,0.00,,,0.00,weatherlink.com 1.10,2013-05-01 17:55:00,
2013-05-01 11:10:00,53.1,40.0,30.52,West,263,4.0,7.0,61,0.00,,,0.00,weatherlink.com 1.10,2013-05-01 18:10:00,
2013-05-01 11:25:00,53.4,39.0,30.52,SW,228,0.0,7.0,58,0.00,,,0.00,weatherlink.com 1.10,2013-05-01 18:25:00,
2013-05-01 11:40:00,54.4,38.0,30.51,West,264,0.0,8.0,55,0.00,,,0.00,weatherlink.com 1.10,2013-05-01 18:40:00,
2013-05-01 11:55:00,55.0,37.0,30.51,WNW,285,2.0,9.0,52,0.00,,,0.00,weatherlink.com 1.10,2013-05-01 18:55:00,
2013-05-01 12:10:00,56.3,38.0,30.51,WNW,300,3.0,7.0,51,0.00,,,0.00,weatherlink.com 1.10,2013-05-01 19:10:00,
2013-05-01 12:25:00,57.3,39.0,30.51,West,272,3.0,9.0,50,0.00,,,0.00,weatherlink.com 1.10,2013-05-01 19:25:00,
2013-05-01 12:40:00,58.0,39.0,30.50,West,276,3.0,9.0,50,0.00,,,0.00,weatherlink.com 1.10,2013-05-01 19:40:00,
2013-05-01 12:55:00,58.4,39.0,30.50,WSW,243,8.0,9.0,48,0.00,,,0.00,weatherlink.com 1.10,2013-05-01 19:55:00,
2013-05-01 13:10:00,59.2,39.0,30.50,West,270,2.0,10.0,48,0.00,,,0.00,weatherlink.com 1.10,2013-05-01 20:10:00,
2013-05-01 13:25:00,60.1,40.0,30.49,WNW,283,4.0,10.0,48,0.00,,,0.00,weatherlink.com 1.10,2013-05-01 20:25:00,
2013-05-01 13:40:00,61.3,40.0,30.49,West,259,6.0,10.0,45,0.00,,,0.00,weatherlink.com 1.10,2013-05-01 20:40:00,
2013-05-01 13:55:00,60.9,40.0,30.49,NNW,345,3.0,13.0,47,0.00,,,0.00,weatherlink.com 1.10,2013-05-01 20:55:00,
2013-05-01 14:10:00,61.8,39.0,30.49,WNW,288,10.0,11.0,44,0.00,,,0.00,weatherlink.com 1.10,2013-05-01 21:10:00,
2013-05-01 14:25:00,62.6,40.0,30.49,WSW,249,11.0,11.0,44,0.00,,,0.00,weatherlink.com 1.10,2013-05-01 21:25:00,
2013-05-01 14:40:00,63.3,39.0,30.49,WNW,286,3.0,9.0,41,0.00,,,0.00,weatherlink.com 1.10,2013-05-01 21:40:00,
2013-05-01 14:56:00,64.2,40.0,30.49,WNW,288,6.0,10.0,41,0.00,,,0.00,weatherlink.com 1.10,2013-05-01 21:56:00,
2013-05-01 15:11:00,64.1,39.0,30.48,West,277,4.0,12.0,40,0.00,,,0.00,weatherlink.com 1.10,2013-05-01 22:11:00,
2013-05-01 15:26:00,65.0,39.0,30.48,West,281,5.0,9.0,39,0.00,,,0.00,weatherlink.com 1.10,2013-05-01 22:26:00,
2013-05-01 15:41:00,65.9,39.0,30.48,West,271,9.0,11.0,37,0.00,,,0.00,weatherlink.com 1.10,2013-05-01 22:41:00,
2013-05-01 15:56:00,65.9,38.0,30.48,NW,314,1.0,14.0,36,0.00,,,0.00,weatherlink.com 1.10,2013-05-01 22:56:00,
2013-05-01 16:11:00,65.7,38.0,30.47,WNW,297,3.0,11.0,36,0.00,,,0.00,weatherlink.com 1.10,2013-05-01 23:11:00,
2013-05-01 16:26:00,65.9,36.0,30.47,WNW,300,3.0,12.0,33,0.00,,,0.00,weatherlink.com 1.10,2013-05-01 23:26:00,
2013-05-01 16:41:00,66.6,36.0,30.47,NW,309,3.0,11.0,32,0.00,,,0.00,weatherlink.com 1.10,2013-05-01 23:41:00,
2013-05-01 16:56:00,66.5,36.0,30.47,WNW,293,8.0,11.0,32,0.00,,,0.00,weatherlink.com 1.10,2013-05-01 23:56:00,
2013-05-01 17:11:00,66.3,35.0,30.46,West,276,8.0,12.0,31,0.00,,,0.00,weatherlink.com 1.10,2013-05-02 00:11:00,
2013-05-01 17:26:00,66.5,34.0,30.46,West,276,5.0,13.0,30,0.00,,,0.00,weatherlink.com 1.10,2013-05-02 00:26:00,
2013-05-01 17:41:00,66.7,33.0,30.46,WNW,293,6.0,8.0,29,0.00,,,0.00,weatherlink.com 1.10,2013-05-02 00:41:00,
2013-05-01 17:56:00,66.4,34.0,30.46,West,276,7.0,8.0,30,0.00,,,0.00,weatherlink.com 1.10,2013-05-02 00:56:00,
2013-05-01 18:11:00,66.3,33.0,30.46,WNW,301,3.0,9.0,29,0.00,,,0.00,weatherlink.com 1.10,2013-05-02 01:11:00,
2013-05-01 18:26:00,65.7,35.0,30.46,West,260,2.0,10.0,32,0.00,,,0.00,weatherlink.com 1.10,2013-05-02 01:26:00,
2013-05-01 18:41:00,65.1,34.0,30.46,West,273,5.0,7.0,31,0.00,,,0.00,weatherlink.com 1.10,2013-05-02 01:41:00,
2013-05-01 18:56:00,64.4,36.0,30.46,WNW,294,3.0,9.0,35,0.00,,,0.00,weatherlink.com 1.10,2013-05-02 01:56:00,
2013-05-01 19:11:00,63.6,37.0,30.45,NNE,30,2.0,7.0,37,0.00,,,0.00,weatherlink.com 1.10,2013-05-02 02:11:00,
2013-05-01 19:26:00,62.8,37.0,30.45,NNW,330,1.0,4.0,38,0.00,,,0.00,weatherlink.com 1.10,2013-05-02 02:26:00,
2013-05-01 19:41:00,61.9,38.0,30.45,NNE,29,1.0,3.0,41,0.00,,,0.00,weatherlink.com 1.10,2013-05-02 02:41:00,
2013-05-01 19:56:00,60.9,37.0,30.45,North,349,0.0,5.0,42,0.00,,,0.00,weatherlink.com 1.10,2013-05-02 02:56:00,
2013-05-01 20:11:00,60.7,37.0,30.45,NNE,23,4.0,11.0,42,0.00,,,0.00,weatherlink.com 1.10,2013-05-02 03:11:00,
2013-05-01 20:26:00,60.2,37.0,30.46,NNE,33,9.0,11.0,42,0.00,,,0.00,weatherlink.com 1.10,2013-05-02 03:26:00,
2013-05-01 20:41:00,59.9,37.0,30.45,NE,51,6.0,14.0,42,0.00,,,0.00,weatherlink.com 1.10,2013-05-02 03:41:00,
2013-05-01 20:56:00,59.9,37.0,30.46,NNE,19,4.0,11.0,42,0.00,,,0.00,weatherlink.com 1.10,2013-05-02 03:56:00,
2013-05-01 21:11:00,60.0,37.0,30.46,NNW,338,8.0,12.0,42,0.00,,,0.00,weatherlink.com 1.10,2013-05-02 04:11:00,
2013-05-01 21:26:00,59.5,37.0,30.46,North,354,3.0,10.0,43,0.00,,,0.00,weatherlink.com 1.10,2013-05-02 04:26:00,
2013-05-01 21:41:00,58.7,37.0,30.47,North,7,2.0,7.0,44,0.00,,,0.00,weatherlink.com 1.10,2013-05-02 04:41:00,
2013-05-01 21:56:00,57.0,37.0,30.47,NE,36,0.0,3.0,48,0.00,,,0.00,weatherlink.com 1.10,2013-05-02 04:56:00,
2013-05-01 22:11:00,55.5,36.0,30.47,NE,56,0.0,1.0,49,0.00,,,0.00,weatherlink.com 1.10,2013-05-02 05:11:00,
2013-05-01 22:26:00,56.6,36.0,30.47,NE,44,0.0,3.0,46,0.00,,,0.00,weatherlink.com 1.10,2013-05-02 05:26:00,
2013-05-01 22:41:00,56.4,36.0,30.47,NNE,33,0.0,1.0,47,0.00,,,0.00,weatherlink.com 1.10,2013-05-02 05:41:00,
2013-05-01 22:56:00,55.6,36.0,30.47,East,95,0.0,0.0,48,0.00,,,0.00,weatherlink.com 1.10,2013-05-02 05:56:00,
2013-05-01 23:11:00,55.2,36.0,30.47,East,84,0.0,1.0,49,0.00,,,0.00,weatherlink.com 1.10,2013-05-02 06:11:00,
2013-05-01 23:26:00,54.4,37.0,30.47,East,91,0.0,1.0,52,0.00,,,0.00,weatherlink.com 1.10,2013-05-02 06:26:00,
2013-05-01 23:41:00,53.4,37.0,30.46,ENE,69,1.0,1.0,54,0.00,,,0.00,weatherlink.com 1.10,2013-05-02 06:41:00,
2013-05-01 23:56:00,52.5,39.0,30.46,ENE,74,0.0,3.0,60,0.00,,,0.00,weatherlink.com 1.10,2013-05-02 06:56:00,